SCQ6J ENZV-ENBR

Flight info

Callsign SCQ6J
Flight time 0h 51m
Altitude 14000
Route FORUS STAVANGER TUGNES BOKN VEST
Aircraft DA42/L-SDGRY/S

Departure

Time 2026-04-22 16:23
Airport Stavanger Airport, Sola (ENZV)

Arrival

Time 2026-04-22 17:15
Airport Bergen Airport, Flesland (ENBR)
Time Latitude Longitude Altitude Speed Heading
2026-04-22 16:11 58.89199 5.63284 21 ft 0 kts 270°
2026-04-22 16:15 58.89191 5.63279 21 ft 5 kts 134°
2026-04-22 16:16 58.89139 5.63389 20 ft 18 kts 164°
2026-04-22 16:16 58.88984 5.63409 22 ft 26 kts 180°
2026-04-22 16:16 58.88786 5.63416 26 ft 29 kts 179°
2026-04-22 16:16 58.88579 5.63422 26 ft 31 kts 180°
2026-04-22 16:17 58.88364 5.63427 25 ft 30 kts 179°
2026-04-22 16:17 58.88161 5.63433 25 ft 28 kts 176°
2026-04-22 16:17 58.87977 5.63396 26 ft 25 kts 205°
2026-04-22 16:17 58.87823 5.63289 26 ft 23 kts 175°
2026-04-22 16:18 58.87730 5.63468 27 ft 21 kts 106°
2026-04-22 16:18 58.87712 5.63601 27 ft 0 kts 100°
2026-04-22 16:22 58.87694 5.63700 28 ft 22 kts 103°
2026-04-22 16:22 58.87769 5.63765 28 ft 28 kts 358°
2026-04-22 16:23 58.89041 5.63723 210 ft 97 kts 353°
2026-04-22 16:23 58.89489 5.63699 377 ft 94 kts 353°
2026-04-22 16:23 58.90114 5.63688 672 ft 87 kts 351°
2026-04-22 16:24 58.90726 5.63692 858 ft 90 kts
2026-04-22 16:24 58.91928 5.64979 1144 ft 109 kts 39°
2026-04-22 16:24 58.92444 5.66170 1138 ft 121 kts 47°
2026-04-22 16:25 58.92911 5.67479 1278 ft 115 kts 52°
2026-04-22 16:25 58.93691 5.70231 1516 ft 116 kts 61°
2026-04-22 16:25 58.94023 5.71657 1536 ft 120 kts 53°
2026-04-22 16:26 58.94548 5.72905 1518 ft 119 kts 37°
2026-04-22 16:26 58.95209 5.73841 1568 ft 116 kts 26°
2026-04-22 16:26 58.95926 5.74550 1607 ft 115 kts 22°
2026-04-22 16:26 58.96670 5.75105 1663 ft 115 kts 14°
2026-04-22 16:27 58.97441 5.75544 1759 ft 114 kts 12°
2026-04-22 16:27 58.98210 5.75777 1784 ft 113 kts
2026-04-22 16:27 58.98995 5.75759 1772 ft 113 kts 356°
2026-04-22 16:27 58.99777 5.75593 1774 ft 114 kts 352°
2026-04-22 16:28 59.00559 5.75350 1784 ft 114 kts 351°
2026-04-22 16:28 59.01337 5.75128 1817 ft 115 kts 354°
2026-04-22 16:28 59.02138 5.75050 1846 ft 113 kts 360°
2026-04-22 16:28 59.02921 5.75104 1797 ft 115 kts 360°
2026-04-22 16:29 59.03719 5.75146 1771 ft 115 kts
2026-04-22 16:29 59.04517 5.75300 1806 ft 115 kts
2026-04-22 16:29 59.05319 5.75392 1832 ft 116 kts
2026-04-22 16:29 59.06136 5.75494 1756 ft 119 kts
2026-04-22 16:30 59.06666 5.75601 1747 ft 117 kts
2026-04-22 16:30 59.07733 5.76081 1540 ft 122 kts 16°
2026-04-22 16:30 59.08509 5.76751 1503 ft 119 kts 24°
2026-04-22 16:30 59.09271 5.77329 1479 ft 120 kts 14°
2026-04-22 16:31 59.10101 5.77677 1375 ft 122 kts
2026-04-22 16:31 59.10912 5.77473 1362 ft 117 kts 338°
2026-04-22 16:31 59.11539 5.76454 1343 ft 121 kts 309°
2026-04-22 16:31 59.11890 5.74966 1385 ft 122 kts 295°
2026-04-22 16:32 59.12180 5.73394 1428 ft 124 kts 295°
2026-04-22 16:32 59.12454 5.71842 1473 ft 124 kts 295°
2026-04-22 16:32 59.12745 5.70277 1515 ft 123 kts 295°
2026-04-22 16:32 59.13030 5.68716 1496 ft 122 kts 292°
2026-04-22 16:33 59.13153 5.67046 1410 ft 130 kts 272°
2026-04-22 16:33 59.13244 5.65389 1490 ft 120 kts 286°
2026-04-22 16:33 59.13409 5.63783 1494 ft 122 kts 287°
2026-04-22 16:33 59.13582 5.62158 1487 ft 121 kts 291°
2026-04-22 16:34 59.13897 5.60682 1489 ft 116 kts 305°
2026-04-22 16:34 59.14313 5.59296 1492 ft 120 kts 306°
2026-04-22 16:34 59.14733 5.57912 1490 ft 118 kts 306°
2026-04-22 16:34 59.15150 5.56538 1502 ft 118 kts 306°
2026-04-22 16:35 59.15619 5.55254 1503 ft 115 kts 320°
2026-04-22 16:35 59.16203 5.54219 1504 ft 115 kts 321°
2026-04-22 16:35 59.16797 5.53182 1505 ft 115 kts 321°
2026-04-22 16:35 59.17391 5.52141 1503 ft 115 kts 321°
2026-04-22 16:36 59.17986 5.51098 1505 ft 115 kts 321°
2026-04-22 16:36 59.18580 5.50055 1511 ft 115 kts 321°
2026-04-22 16:36 59.19174 5.49012 1510 ft 115 kts 321°
2026-04-22 16:36 59.19768 5.47971 1509 ft 115 kts 321°
2026-04-22 16:37 59.20330 5.46988 1510 ft 114 kts 321°
2026-04-22 16:37 59.20927 5.45953 1513 ft 115 kts 321°
2026-04-22 16:37 59.21557 5.45014 1514 ft 114 kts 329°
2026-04-22 16:37 59.22217 5.44182 1514 ft 115 kts 329°
2026-04-22 16:38 59.22889 5.43334 1514 ft 115 kts 329°
2026-04-22 16:38 59.23577 5.42524 1509 ft 116 kts 342°
2026-04-22 16:38 59.24356 5.42187 1521 ft 114 kts 349°
2026-04-22 16:38 59.25129 5.41901 1522 ft 112 kts 349°
2026-04-22 16:39 59.25886 5.42123 1521 ft 113 kts 21°
2026-04-22 16:39 59.26603 5.42789 1522 ft 114 kts 22°
2026-04-22 16:39 59.27325 5.43459 1524 ft 115 kts 22°
2026-04-22 16:39 59.28047 5.44139 1531 ft 116 kts 22°
2026-04-22 16:40 59.28772 5.44830 1530 ft 120 kts 23°
2026-04-22 16:40 59.29591 5.45575 1524 ft 136 kts 22°
2026-04-22 16:40 59.31362 5.47225 1532 ft 144 kts 23°
2026-04-22 16:41 59.32282 5.48067 1526 ft 147 kts 22°
2026-04-22 16:41 59.33201 5.48902 1623 ft 141 kts 22°
2026-04-22 16:41 59.34054 5.49701 1837 ft 134 kts 22°
2026-04-22 16:41 59.34894 5.50485 2033 ft 131 kts 22°
2026-04-22 16:42 59.35717 5.51240 2212 ft 131 kts 23°
2026-04-22 16:42 59.36555 5.51983 2327 ft 133 kts 21°
2026-04-22 16:42 59.37403 5.52734 2535 ft 133 kts 23°
2026-04-22 16:42 59.38184 5.53693 2699 ft 134 kts 36°
2026-04-22 16:43 59.38848 5.55000 2830 ft 137 kts 45°
2026-04-22 16:43 59.39479 5.56405 2968 ft 137 kts 46°
2026-04-22 16:43 59.40118 5.57821 3010 ft 142 kts 46°
2026-04-22 16:43 59.40784 5.59295 3008 ft 146 kts 46°
2026-04-22 16:44 59.41469 5.60790 3011 ft 148 kts 45°
2026-04-22 16:44 59.42173 5.62326 3006 ft 153 kts 46°
2026-04-22 16:44 59.42889 5.63886 3011 ft 155 kts 45°
2026-04-22 16:44 59.43615 5.65468 2998 ft 155 kts 45°
2026-04-22 16:45 59.44410 5.66857 3005 ft 153 kts 32°
2026-04-22 16:45 59.45349 5.67757 2993 ft 151 kts 20°
2026-04-22 16:45 59.46320 5.68527 2993 ft 150 kts 18°
2026-04-22 16:45 59.47342 5.68973 2999 ft 151 kts
2026-04-22 16:46 59.48390 5.69220 2988 ft 151 kts
2026-04-22 16:46 59.49432 5.69449 2988 ft 150 kts
2026-04-22 16:46 59.50455 5.69673 3005 ft 148 kts
2026-04-22 16:46 59.51495 5.69906 2996 ft 151 kts
2026-04-22 16:47 59.52551 5.70147 2992 ft 153 kts
2026-04-22 16:47 59.53610 5.70363 3002 ft 153 kts
2026-04-22 16:47 59.54661 5.70569 2994 ft 153 kts
2026-04-22 16:47 59.55719 5.70792 2989 ft 153 kts
2026-04-22 16:48 59.56784 5.71024 2990 ft 155 kts
2026-04-22 16:48 59.57850 5.71346 2990 ft 155 kts 13°
2026-04-22 16:48 59.58873 5.71968 2985 ft 154 kts 24°
2026-04-22 16:48 59.59681 5.73330 2987 ft 156 kts 52°
2026-04-22 16:49 59.60235 5.75172 2985 ft 157 kts 66°
2026-04-22 16:49 59.60576 5.77218 2986 ft 157 kts 71°
2026-04-22 16:49 59.60896 5.79276 2979 ft 156 kts 70°
2026-04-22 16:49 59.61211 5.81279 2980 ft 154 kts 70°
2026-04-22 16:50 59.61642 5.83213 2973 ft 153 kts 62°
2026-04-22 16:50 59.62104 5.85033 2985 ft 147 kts 62°
2026-04-22 16:50 59.62561 5.86870 2987 ft 151 kts 62°
2026-04-22 16:50 59.63038 5.88777 2981 ft 156 kts 62°
2026-04-22 16:51 59.63527 5.90707 2974 ft 157 kts 62°
2026-04-22 16:51 59.64019 5.92633 2970 ft 157 kts 62°
2026-04-22 16:51 59.64608 5.94434 2968 ft 156 kts 45°
2026-04-22 16:51 59.65531 5.95508 2966 ft 155 kts 17°
2026-04-22 16:52 59.66595 5.95897 2965 ft 156 kts 10°
2026-04-22 16:52 59.67676 5.96221 2971 ft 158 kts
2026-04-22 16:52 59.68743 5.96542 2961 ft 156 kts
2026-04-22 16:52 59.69809 5.96850 2968 ft 155 kts
2026-04-22 16:53 59.70876 5.97146 2963 ft 155 kts
2026-04-22 16:53 59.71970 5.97401 2785 ft 160 kts
2026-04-22 16:53 59.73087 5.97618 2554 ft 164 kts 356°
2026-04-22 16:53 59.74051 5.96707 2654 ft 154 kts 314°
2026-04-22 16:54 59.74376 5.94724 2611 ft 157 kts 277°
2026-04-22 16:54 59.74379 5.92501 2408 ft 165 kts 268°
2026-04-22 16:54 59.74316 5.90316 2513 ft 151 kts 269°
2026-04-22 16:54 59.74295 5.88301 2634 ft 142 kts 283°
2026-04-22 16:55 59.74576 5.86463 2774 ft 138 kts 291°
2026-04-22 16:55 59.74881 5.84676 2901 ft 136 kts 292°
2026-04-22 16:55 59.75184 5.82902 2980 ft 138 kts 291°
2026-04-22 16:55 59.75500 5.81054 2985 ft 144 kts 291°
2026-04-22 16:56 59.75829 5.79153 2988 ft 147 kts 292°
2026-04-22 16:56 59.76166 5.77208 2996 ft 151 kts 292°
2026-04-22 16:56 59.76681 5.75381 2996 ft 153 kts 306°
2026-04-22 16:56 59.77275 5.73646 2990 ft 151 kts 307°
2026-04-22 16:57 59.77865 5.71926 2999 ft 150 kts 307°
2026-04-22 16:57 59.78433 5.70256 3166 ft 140 kts 306°
2026-04-22 16:57 59.78969 5.68672 3277 ft 139 kts 307°
2026-04-22 16:57 59.79503 5.67093 3542 ft 131 kts 307°
2026-04-22 16:58 59.79818 5.66140 3860 ft 120 kts 306°
2026-04-22 16:58 59.80428 5.64309 4161 ft 121 kts 307°
2026-04-22 16:58 59.80897 5.62928 4433 ft 120 kts 307°
2026-04-22 16:58 59.81392 5.61594 4695 ft 120 kts 310°
2026-04-22 16:59 59.81899 5.60282 4966 ft 120 kts 310°
2026-04-22 16:59 59.82447 5.58885 4999 ft 137 kts 310°
2026-04-22 16:59 59.83063 5.57331 5005 ft 148 kts 310°
2026-04-22 16:59 59.83719 5.55694 5009 ft 154 kts 311°
2026-04-22 17:00 59.84392 5.54011 5006 ft 157 kts 310°
2026-04-22 17:00 59.85765 5.50575 5012 ft 160 kts 310°
2026-04-22 17:00 59.86457 5.48848 5007 ft 160 kts 311°
2026-04-22 17:01 59.87151 5.47106 5007 ft 161 kts 310°
2026-04-22 17:01 59.87849 5.45352 5010 ft 161 kts 310°
2026-04-22 17:01 59.88548 5.43602 5005 ft 162 kts 310°
2026-04-22 17:01 59.89233 5.41854 5008 ft 162 kts 310°
2026-04-22 17:02 59.89936 5.40087 4998 ft 162 kts 310°
2026-04-22 17:02 59.90636 5.38322 5004 ft 163 kts 310°
2026-04-22 17:02 59.91388 5.36649 5004 ft 162 kts 316°
2026-04-22 17:02 59.92165 5.35030 5041 ft 162 kts 314°
2026-04-22 17:03 59.92921 5.33307 4914 ft 167 kts 314°
2026-04-22 17:03 59.93686 5.31575 4849 ft 166 kts 313°
2026-04-22 17:03 59.94428 5.29801 4764 ft 166 kts 312°
2026-04-22 17:03 59.95168 5.28014 4673 ft 167 kts 313°
2026-04-22 17:04 59.95686 5.26883 4620 ft 167 kts 316°
2026-04-22 17:04 59.96798 5.24765 4447 ft 165 kts 320°
2026-04-22 17:04 59.97645 5.23213 4271 ft 165 kts 319°
2026-04-22 17:04 59.98469 5.21623 4083 ft 164 kts 317°
2026-04-22 17:05 59.99252 5.19950 3874 ft 167 kts 313°
2026-04-22 17:05 59.99948 5.18196 3901 ft 156 kts 311°
2026-04-22 17:05 60.00616 5.16586 4027 ft 146 kts 312°
2026-04-22 17:05 60.01249 5.15039 4134 ft 140 kts 311°
2026-04-22 17:06 60.01856 5.13517 4136 ft 141 kts 319°
2026-04-22 17:06 60.02684 5.12561 4181 ft 139 kts 347°
2026-04-22 17:06 60.03661 5.12251 4045 ft 145 kts 355°
2026-04-22 17:06 60.04679 5.12085 3904 ft 149 kts 358°
2026-04-22 17:07 60.05719 5.11922 3788 ft 150 kts 356°
2026-04-22 17:07 60.06755 5.11775 3710 ft 148 kts 359°
2026-04-22 17:07 60.07793 5.11792 3568 ft 151 kts
2026-04-22 17:07 60.08853 5.11938 3322 ft 154 kts
2026-04-22 17:08 60.09912 5.12097 3124 ft 150 kts
2026-04-22 17:08 60.10958 5.12143 2838 ft 150 kts
2026-04-22 17:08 60.11972 5.12103 2573 ft 147 kts 358°
2026-04-22 17:08 60.12988 5.12073 2339 ft 140 kts
2026-04-22 17:09 60.13919 5.12354 2195 ft 135 kts 13°
2026-04-22 17:09 60.14833 5.12832 1929 ft 138 kts 11°
2026-04-22 17:09 60.15439 5.13121 1876 ft 127 kts 13°
2026-04-22 17:09 60.16526 5.13745 1828 ft 120 kts 13°
2026-04-22 17:10 60.17323 5.14201 1803 ft 118 kts 13°
2026-04-22 17:10 60.17859 5.14486 1745 ft 118 kts 12°
2026-04-22 17:10 60.18638 5.14943 1660 ft 118 kts 13°
2026-04-22 17:10 60.19434 5.15385 1637 ft 117 kts 11°
2026-04-22 17:11 60.20226 5.15639 1625 ft 113 kts
2026-04-22 17:11 60.21004 5.15636 1698 ft 111 kts 354°
2026-04-22 17:11 60.21757 5.15471 1856 ft 104 kts 356°
2026-04-22 17:11 60.22466 5.15373 1974 ft 106 kts 354°
2026-04-22 17:12 60.23229 5.15147 1961 ft 114 kts 348°
2026-04-22 17:12 60.24031 5.14916 2111 ft 111 kts
2026-04-22 17:12 60.24575 5.15824 2248 ft 103 kts 64°
2026-04-22 17:12 60.24688 5.17216 2042 ft 103 kts 78°
2026-04-22 17:13 60.24792 5.18633 1671 ft 100 kts 72°
2026-04-22 17:13 60.24933 5.19964 1474 ft 95 kts 66°
2026-04-22 17:13 60.25126 5.21200 1363 ft 89 kts 56°
2026-04-22 17:13 60.25542 5.22028 1257 ft 85 kts 21°
2026-04-22 17:14 60.26094 5.22379 1083 ft 83 kts 11°
2026-04-22 17:14 60.26673 5.22574 808 ft 84 kts 359°
2026-04-22 17:14 60.27261 5.22497 562 ft 86 kts 344°
2026-04-22 17:14 60.27848 5.22300 303 ft 83 kts 346°
2026-04-22 17:15 60.28217 5.22183 212 ft 78 kts 347°
2026-04-22 17:15 60.28824 5.21986 163 ft 52 kts 343°
2026-04-22 17:15 60.29127 5.21887 159 ft 36 kts 351°
2026-04-22 17:15 60.29318 5.21822 159 ft 19 kts 352°
2026-04-22 17:16 60.29386 5.21927 161 ft 13 kts 82°
2026-04-22 17:16 60.29393 5.22007 161 ft 0 kts 79°
2026-04-22 17:17 60.29394 5.22024 160 ft 6 kts 85°
2026-04-22 17:17 60.29412 5.22194 161 ft 15 kts 50°
2026-04-22 17:17 60.29521 5.22196 161 ft 18 kts
2026-04-22 17:17 60.29564 5.22395 162 ft 18 kts 103°
2026-04-22 17:18 60.29540 5.22434 161 ft 0 kts 138°